Time,TemperatureF,DewpointF,PressureIn,WindDirection,WindDirectionDegrees,WindSpeedMPH,WindSpeedGustMPH,Humidity,HourlyPrecipIn,Conditions,Clouds,dailyrainin,SoftwareType,DateUTC
2013-06-09 00:01:00,72.0,71.1,30.07,SE,135,2.2,2.2,97,0.00,,,0.00,meteobridge,2013-06-09 04:01:00,
2013-06-09 00:02:00,72.1,71.2,30.07,SE,135,2.2,2.2,97,0.00,,,0.00,meteobridge,2013-06-09 04:02:00,
2013-06-09 00:08:00,72.0,71.1,30.06,SE,135,2.2,2.2,97,0.00,,,0.00,meteobridge,2013-06-09 04:08:00,
2013-06-09 00:13:00,72.0,71.1,30.07,SE,135,1.6,1.6,97,0.00,,,0.00,meteobridge,2013-06-09 04:13:00,
2013-06-09 00:18:00,72.0,71.1,30.06,East,90,3.1,3.1,97,0.00,,,0.00,meteobridge,2013-06-09 04:18:00,
2013-06-09 00:23:00,71.8,70.9,30.07,SE,135,2.2,2.2,97,0.00,,,0.00,meteobridge,2013-06-09 04:23:00,
2013-06-09 00:28:00,71.8,70.9,30.06,SE,135,1.6,2.2,97,0.00,,,0.00,meteobridge,2013-06-09 04:28:00,
2013-06-09 00:33:00,71.8,70.9,30.06,SE,135,2.2,2.2,97,0.00,,,0.00,meteobridge,2013-06-09 04:33:00,
2013-06-09 00:39:00,71.6,70.7,30.06,SE,135,1.6,1.6,97,0.00,,,0.00,meteobridge,2013-06-09 04:39:00,
2013-06-09 00:44:00,71.6,70.7,30.06,SE,135,0.7,0.7,97,0.00,,,0.00,meteobridge,2013-06-09 04:44:00,
2013-06-09 00:49:00,71.6,70.7,30.06,SE,135,1.6,1.6,97,0.00,,,0.00,meteobridge,2013-06-09 04:49:00,
2013-06-09 00:54:00,71.4,70.9,30.06,SE,135,1.6,1.6,98,0.00,,,0.00,meteobridge,2013-06-09 04:54:00,
2013-06-09 00:59:00,71.4,70.9,30.06,East,90,2.2,2.2,98,0.00,,,0.00,meteobridge,2013-06-09 04:59:00,
2013-06-09 01:04:00,71.2,70.7,30.06,SE,135,3.1,3.1,98,0.00,,,0.00,meteobridge,2013-06-09 05:04:00,
2013-06-09 01:10:00,71.2,70.7,30.06,East,90,3.1,3.1,98,0.00,,,0.00,meteobridge,2013-06-09 05:10:00,
2013-06-09 01:15:00,71.1,70.5,30.06,East,90,3.1,3.1,98,0.00,,,0.00,meteobridge,2013-06-09 05:15:00,
2013-06-09 01:20:00,71.2,70.7,30.07,NE,45,0.7,1.6,98,0.00,,,0.00,meteobridge,2013-06-09 05:20:00,
2013-06-09 01:25:00,71.2,70.7,30.07,SE,135,1.6,1.6,98,0.00,,,0.00,meteobridge,2013-06-09 05:25:00,
2013-06-09 01:30:00,71.2,70.7,30.07,SE,135,1.6,1.6,98,0.00,,,0.00,meteobridge,2013-06-09 05:30:00,
2013-06-09 01:35:00,70.9,70.3,30.07,ESE,113,3.1,3.1,98,0.00,,,0.00,meteobridge,2013-06-09 05:35:00,
2013-06-09 01:41:00,70.9,70.3,30.07,East,90,1.6,2.2,98,0.00,,,0.00,meteobridge,2013-06-09 05:41:00,
2013-06-09 01:46:00,70.9,70.3,30.07,East,90,1.6,1.6,98,0.00,,,0.00,meteobridge,2013-06-09 05:46:00,
2013-06-09 01:51:00,70.9,70.3,30.07,SE,135,1.6,2.2,98,0.00,,,0.00,meteobridge,2013-06-09 05:51:00,
2013-06-09 01:56:00,70.7,70.2,30.07,SE,135,3.1,3.1,98,0.00,,,0.00,meteobridge,2013-06-09 05:56:00,
2013-06-09 02:01:00,70.5,70.0,30.08,East,90,3.1,3.1,98,0.00,,,0.00,meteobridge,2013-06-09 06:01:00,
2013-06-09 02:06:00,70.3,69.8,30.07,East,90,2.2,2.2,98,0.00,,,0.00,meteobridge,2013-06-09 06:06:00,
2013-06-09 02:12:00,70.3,69.8,30.07,East,90,1.6,2.2,98,0.00,,,0.00,meteobridge,2013-06-09 06:12:00,
2013-06-09 02:17:00,70.5,70.0,30.07,SE,135,1.6,1.6,98,0.00,,,0.00,meteobridge,2013-06-09 06:17:00,
2013-06-09 02:22:00,70.5,70.0,30.07,SE,135,3.1,3.1,98,0.00,,,0.00,meteobridge,2013-06-09 06:22:00,
2013-06-09 02:27:00,70.2,69.6,30.07,East,90,3.8,3.8,98,0.00,,,0.00,meteobridge,2013-06-09 06:27:00,
2013-06-09 02:32:00,70.2,69.6,30.07,SE,135,1.6,3.1,98,0.00,,,0.00,meteobridge,2013-06-09 06:32:00,
2013-06-09 02:37:00,70.2,69.6,30.07,SE,135,0.7,1.6,98,0.00,,,0.00,meteobridge,2013-06-09 06:37:00,
2013-06-09 02:42:00,70.3,69.8,30.07,East,90,2.2,2.2,98,0.00,,,0.00,meteobridge,2013-06-09 06:42:00,
2013-06-09 02:48:00,70.3,69.8,30.07,SE,135,2.2,2.2,98,0.00,,,0.00,meteobridge,2013-06-09 06:48:00,
2013-06-09 02:53:00,70.2,69.6,30.07,SE,135,2.2,2.2,98,0.00,,,0.00,meteobridge,2013-06-09 06:53:00,
2013-06-09 02:58:00,70.2,69.6,30.07,East,90,3.1,3.1,98,0.00,,,0.00,meteobridge,2013-06-09 06:58:00,
2013-06-09 03:03:00,70.0,69.4,30.07,SE,135,3.1,3.1,98,0.00,,,0.00,meteobridge,2013-06-09 07:03:00,
2013-06-09 03:08:00,70.2,69.6,30.07,SE,135,1.6,2.2,98,0.00,,,0.00,meteobridge,2013-06-09 07:08:00,
2013-06-09 03:13:00,70.2,69.6,30.07,SE,135,2.2,2.2,98,0.00,,,0.00,meteobridge,2013-06-09 07:13:00,
2013-06-09 03:19:00,70.2,69.6,30.07,ESE,113,3.1,3.1,98,0.00,,,0.00,meteobridge,2013-06-09 07:19:00,
2013-06-09 03:24:00,70.0,69.4,30.07,SE,135,1.6,2.2,98,0.00,,,0.00,meteobridge,2013-06-09 07:24:00,
2013-06-09 03:29:00,70.0,69.4,30.07,North,0,1.6,1.6,98,0.00,,,0.00,meteobridge,2013-06-09 07:29:00,
2013-06-09 03:34:00,70.3,69.8,30.08,SE,135,2.2,2.2,98,0.00,,,0.00,meteobridge,2013-06-09 07:34:00,
2013-06-09 03:39:00,70.0,69.4,30.08,SE,135,2.2,2.2,98,0.00,,,0.00,meteobridge,2013-06-09 07:39:00,
2013-06-09 03:44:00,70.0,69.4,30.08,SE,135,1.6,1.6,98,0.00,,,0.00,meteobridge,2013-06-09 07:44:00,
2013-06-09 03:49:00,70.0,69.4,30.08,SE,135,3.1,3.1,98,0.00,,,0.00,meteobridge,2013-06-09 07:49:00,
2013-06-09 03:54:00,69.8,69.3,30.08,East,90,1.6,3.1,98,0.00,,,0.00,meteobridge,2013-06-09 07:54:00,
2013-06-09 03:59:00,69.8,69.3,30.08,SE,135,0.0,0.0,98,0.00,,,0.00,meteobridge,2013-06-09 07:59:00,
2013-06-09 04:05:00,70.0,69.4,30.09,SE,135,0.7,0.7,98,0.00,,,0.00,meteobridge,2013-06-09 08:05:00,
2013-06-09 04:10:00,69.8,69.3,30.08,SE,135,3.1,3.1,98,0.00,,,0.00,meteobridge,2013-06-09 08:10:00,
2013-06-09 04:15:00,69.6,69.3,30.08,SE,135,1.6,2.2,99,0.00,,,0.00,meteobridge,2013-06-09 08:15:00,
2013-06-09 04:20:00,69.6,69.3,30.08,SE,135,1.6,2.2,99,0.00,,,0.00,meteobridge,2013-06-09 08:20:00,
2013-06-09 04:25:00,69.6,69.3,30.09,East,90,2.2,3.1,99,0.00,,,0.00,meteobridge,2013-06-09 08:25:00,
2013-06-09 04:31:00,69.4,69.1,30.09,SE,135,1.6,2.2,99,0.00,,,0.00,meteobridge,2013-06-09 08:31:00,
2013-06-09 04:36:00,69.4,69.1,30.09,SE,135,1.6,1.6,99,0.00,,,0.00,meteobridge,2013-06-09 08:36:00,
2013-06-09 04:41:00,69.3,68.9,30.09,SE,135,1.6,2.2,99,0.00,,,0.00,meteobridge,2013-06-09 08:41:00,
2013-06-09 04:46:00,69.3,68.9,30.09,SE,135,3.1,3.1,99,0.00,,,0.00,meteobridge,2013-06-09 08:46:00,
2013-06-09 04:51:00,69.3,68.9,30.09,East,90,2.2,3.1,99,0.00,,,0.00,meteobridge,2013-06-09 08:51:00,
2013-06-09 04:57:00,69.1,68.7,30.09,SE,135,1.6,2.2,99,0.00,,,0.00,meteobridge,2013-06-09 08:57:00,
2013-06-09 05:02:00,69.1,68.7,30.10,SE,135,1.6,1.6,99,0.00,,,0.00,meteobridge,2013-06-09 09:02:00,
2013-06-09 05:07:00,69.1,68.7,30.10,SE,135,1.6,1.6,99,0.00,,,0.00,meteobridge,2013-06-09 09:07:00,
2013-06-09 05:12:00,69.1,68.7,30.10,SE,135,1.6,2.2,99,0.00,,,0.00,meteobridge,2013-06-09 09:12:00,
2013-06-09 05:17:00,69.1,68.7,30.10,SE,135,2.2,2.2,99,0.00,,,0.00,meteobridge,2013-06-09 09:17:00,
2013-06-09 05:22:00,68.9,68.5,30.10,SE,135,1.6,2.2,99,0.00,,,0.00,meteobridge,2013-06-09 09:22:00,
2013-06-09 05:28:00,68.9,68.5,30.10,SE,135,1.6,1.6,99,0.00,,,0.00,meteobridge,2013-06-09 09:28:00,
2013-06-09 05:33:00,68.9,68.5,30.11,SE,135,2.2,2.2,99,0.00,,,0.00,meteobridge,2013-06-09 09:33:00,
2013-06-09 05:38:00,68.7,68.4,30.11,SE,135,2.2,3.1,99,0.00,,,0.00,meteobridge,2013-06-09 09:38:00,
2013-06-09 05:43:00,68.7,68.4,30.11,East,90,2.2,2.2,99,0.00,,,0.00,meteobridge,2013-06-09 09:43:00,
2013-06-09 05:48:00,68.5,68.2,30.11,East,90,2.2,2.2,99,0.00,,,0.00,meteobridge,2013-06-09 09:48:00,
2013-06-09 05:53:00,68.7,68.4,30.11,East,90,3.8,3.8,99,0.00,,,0.00,meteobridge,2013-06-09 09:53:00,
2013-06-09 05:59:00,68.5,68.2,30.11,SE,135,3.1,3.1,99,0.00,,,0.00,meteobridge,2013-06-09 09:59:00,
2013-06-09 06:04:00,68.5,68.2,30.11,SE,135,3.1,3.8,99,0.00,,,0.00,meteobridge,2013-06-09 10:04:00,
2013-06-09 06:09:00,68.5,68.2,30.11,East,90,2.2,2.2,99,0.00,,,0.00,meteobridge,2013-06-09 10:09:00,
2013-06-09 06:14:00,68.5,68.2,30.12,East,90,3.1,3.1,99,0.00,,,0.00,meteobridge,2013-06-09 10:14:00,
2013-06-09 06:19:00,68.7,68.4,30.11,SE,135,3.1,3.1,99,0.00,,,0.00,meteobridge,2013-06-09 10:19:00,
2013-06-09 06:24:00,68.7,68.4,30.12,SE,135,2.2,2.2,99,0.00,,,0.00,meteobridge,2013-06-09 10:24:00,
2013-06-09 06:30:00,68.9,68.5,30.12,ESE,113,2.2,2.2,99,0.00,,,0.00,meteobridge,2013-06-09 10:30:00,
2013-06-09 06:35:00,68.9,68.5,30.12,SE,135,1.6,2.2,99,0.00,,,0.00,meteobridge,2013-06-09 10:35:00,
2013-06-09 06:40:00,69.1,68.7,30.12,SE,135,1.6,1.6,99,0.00,,,0.00,meteobridge,2013-06-09 10:40:00,
2013-06-09 06:45:00,69.3,68.9,30.12,ESE,113,1.6,1.6,99,0.00,,,0.00,meteobridge,2013-06-09 10:45:00,
2013-06-09 06:50:00,69.3,68.9,30.13,SE,135,2.2,2.2,99,0.00,,,0.00,meteobridge,2013-06-09 10:50:00,
2013-06-09 06:55:00,69.4,69.1,30.13,SE,135,2.2,2.2,99,0.00,,,0.00,meteobridge,2013-06-09 10:55:00,
2013-06-09 07:01:00,69.6,69.3,30.12,SE,135,1.6,2.2,99,0.00,,,0.00,meteobridge,2013-06-09 11:01:00,
2013-06-09 07:06:00,69.8,69.3,30.13,SE,135,2.2,2.2,98,0.00,,,0.00,meteobridge,2013-06-09 11:06:00,
2013-06-09 07:11:00,69.8,69.3,30.13,SE,135,3.1,3.1,98,0.00,,,0.00,meteobridge,2013-06-09 11:11:00,
2013-06-09 07:16:00,70.0,69.4,30.13,East,90,2.2,3.1,98,0.00,,,0.00,meteobridge,2013-06-09 11:16:00,
2013-06-09 07:21:00,70.2,69.6,30.13,SE,135,2.2,2.2,98,0.00,,,0.00,meteobridge,2013-06-09 11:21:00,
2013-06-09 07:26:00,70.3,69.8,30.13,SE,135,2.2,3.1,98,0.00,,,0.00,meteobridge,2013-06-09 11:26:00,
2013-06-09 07:32:00,70.9,70.3,30.13,SE,135,1.6,1.6,98,0.00,,,0.00,meteobridge,2013-06-09 11:32:00,
2013-06-09 07:37:00,71.2,70.7,30.14,SE,135,1.6,1.6,98,0.00,,,0.00,meteobridge,2013-06-09 11:37:00,
2013-06-09 07:42:00,71.6,70.7,30.14,SE,135,2.2,2.2,97,0.00,,,0.00,meteobridge,2013-06-09 11:42:00,
2013-06-09 07:47:00,72.1,71.2,30.14,SE,135,0.7,1.6,97,0.00,,,0.00,meteobridge,2013-06-09 11:47:00,
2013-06-09 07:52:00,73.0,72.1,30.14,SE,135,0.7,0.7,97,0.00,,,0.00,meteobridge,2013-06-09 11:52:00,
2013-06-09 07:57:00,74.3,73.9,30.14,SE,135,0.7,0.7,99,0.00,,,0.00,meteobridge,2013-06-09 11:57:00,
2013-06-09 08:03:00,76.3,75.9,30.14,SE,135,1.6,1.6,99,0.00,,,0.00,meteobridge,2013-06-09 12:03:00,
2013-06-09 08:08:00,77.0,76.6,30.14,SW,225,0.7,0.7,99,0.00,,,0.00,meteobridge,2013-06-09 12:08:00,
2013-06-09 08:13:00,77.5,77.2,30.14,West,270,0.7,1.6,99,0.00,,,0.00,meteobridge,2013-06-09 12:13:00,
2013-06-09 08:18:00,77.2,76.3,30.14,NW,315,2.2,3.1,97,0.00,,,0.00,meteobridge,2013-06-09 12:18:00,
2013-06-09 08:23:00,76.3,74.5,30.15,North,0,1.6,3.1,94,0.00,,,0.00,meteobridge,2013-06-09 12:23:00,
2013-06-09 08:29:00,76.8,74.7,30.15,North,0,0.7,0.7,93,0.00,,,0.00,meteobridge,2013-06-09 12:29:00,
2013-06-09 08:34:00,77.5,74.7,30.15,West,270,0.7,0.7,91,0.00,,,0.00,meteobridge,2013-06-09 12:34:00,
2013-06-09 08:39:00,77.5,74.3,30.15,East,90,0.7,0.7,90,0.00,,,0.00,meteobridge,2013-06-09 12:39:00,
2013-06-09 08:44:00,77.4,73.9,30.14,East,90,2.2,2.2,89,0.00,,,0.00,meteobridge,2013-06-09 12:44:00,
2013-06-09 08:49:00,77.0,73.6,30.15,SE,135,2.2,3.1,89,0.00,,,0.00,meteobridge,2013-06-09 12:49:00,
2013-06-09 08:54:00,77.2,73.8,30.15,ESE,113,1.6,1.6,89,0.00,,,0.00,meteobridge,2013-06-09 12:54:00,
2013-06-09 09:00:00,78.3,74.1,30.16,West,270,0.7,1.6,87,0.00,,,0.00,meteobridge,2013-06-09 13:00:00,
2013-06-09 09:05:00,80.1,74.5,30.15,North,0,2.2,2.2,83,0.00,,,0.00,meteobridge,2013-06-09 13:05:00,
2013-06-09 09:10:00,80.4,73.8,30.15,North,0,2.2,3.1,80,0.00,,,0.00,meteobridge,2013-06-09 13:10:00,
2013-06-09 09:15:00,82.0,74.1,30.15,NW,315,2.2,3.1,77,0.00,,,0.00,meteobridge,2013-06-09 13:15:00,
2013-06-09 09:20:00,82.4,73.2,30.15,North,0,3.1,3.1,74,0.00,,,0.00,meteobridge,2013-06-09 13:20:00,
2013-06-09 09:25:00,82.2,73.6,30.15,North,0,2.2,3.1,75,0.00,,,0.00,meteobridge,2013-06-09 13:25:00,
2013-06-09 09:31:00,83.3,74.5,30.15,NW,315,1.6,2.2,75,0.00,,,0.00,meteobridge,2013-06-09 13:31:00,
2013-06-09 09:36:00,84.4,73.0,30.15,West,270,2.2,3.1,69,0.00,,,0.00,meteobridge,2013-06-09 13:36:00,
2013-06-09 09:41:00,84.2,72.9,30.14,NW,315,2.2,2.2,69,0.00,,,0.00,meteobridge,2013-06-09 13:41:00,
2013-06-09 09:46:00,83.3,72.9,30.14,WNW,293,2.2,3.1,71,0.00,,,0.00,meteobridge,2013-06-09 13:46:00,
2013-06-09 09:51:00,82.9,73.0,30.14,West,270,2.2,2.2,72,0.00,,,0.00,meteobridge,2013-06-09 13:51:00,
2013-06-09 09:56:00,82.4,72.9,30.14,West,270,2.2,2.2,73,0.00,,,0.00,meteobridge,2013-06-09 13:56:00,
2013-06-09 10:02:00,81.7,73.0,30.14,West,270,1.6,1.6,75,0.00,,,0.00,meteobridge,2013-06-09 14:02:00,
2013-06-09 10:07:00,82.6,73.4,30.14,West,270,1.6,1.6,74,0.00,,,0.00,meteobridge,2013-06-09 14:07:00,
2013-06-09 10:12:00,83.8,73.4,30.14,West,270,1.6,1.6,71,0.00,,,0.00,meteobridge,2013-06-09 14:12:00,
2013-06-09 10:17:00,86.4,74.1,30.14,NW,315,1.6,1.6,67,0.00,,,0.00,meteobridge,2013-06-09 14:17:00,
2013-06-09 10:22:00,88.2,73.4,30.13,NW,315,2.2,2.2,62,0.00,,,0.00,meteobridge,2013-06-09 14:22:00,
2013-06-09 10:27:00,88.9,74.1,30.13,NW,315,2.2,2.2,62,0.00,,,0.00,meteobridge,2013-06-09 14:27:00,
2013-06-09 10:33:00,89.6,72.9,30.13,NW,315,3.8,3.8,58,0.00,,,0.00,meteobridge,2013-06-09 14:33:00,
2013-06-09 10:38:00,86.0,73.2,30.13,West,270,3.1,3.8,66,0.00,,,0.00,meteobridge,2013-06-09 14:38:00,
2013-06-09 10:43:00,84.0,74.5,30.13,West,270,3.1,3.8,73,0.00,,,0.00,meteobridge,2013-06-09 14:43:00,
2013-06-09 10:48:00,85.6,74.3,30.13,West,270,5.4,5.4,69,0.00,,,0.00,meteobridge,2013-06-09 14:48:00,
2013-06-09 10:53:00,84.2,73.4,30.12,West,270,3.8,3.8,70,0.00,,,0.00,meteobridge,2013-06-09 14:53:00,
2013-06-09 10:58:00,83.7,73.6,30.12,West,270,4.5,4.5,72,0.00,,,0.00,meteobridge,2013-06-09 14:58:00,
2013-06-09 11:04:00,82.6,73.8,30.13,West,270,6.0,6.0,75,0.00,,,0.00,meteobridge,2013-06-09 15:04:00,
2013-06-09 11:09:00,82.9,73.8,30.12,West,270,5.4,5.4,74,0.00,,,0.00,meteobridge,2013-06-09 15:09:00,
2013-06-09 11:14:00,83.8,73.0,30.12,West,270,3.8,4.5,70,0.00,,,0.00,meteobridge,2013-06-09 15:14:00,
2013-06-09 11:19:00,84.7,72.5,30.12,West,270,3.8,4.5,67,0.00,,,0.00,meteobridge,2013-06-09 15:19:00,
2013-06-09 11:24:00,84.7,73.4,30.12,West,270,4.5,5.4,69,0.00,,,0.00,meteobridge,2013-06-09 15:24:00,
2013-06-09 11:29:00,84.2,72.9,30.12,NW,315,4.5,4.5,69,0.00,,,0.00,meteobridge,2013-06-09 15:29:00,
2013-06-09 11:35:00,85.1,73.4,30.12,West,270,3.8,3.8,68,0.00,,,0.00,meteobridge,2013-06-09 15:35:00,
2013-06-09 11:40:00,85.3,72.1,30.12,West,270,5.4,6.9,65,0.00,,,0.00,meteobridge,2013-06-09 15:40:00,
2013-06-09 11:45:00,85.3,73.0,30.12,SW,225,6.9,6.9,67,0.00,,,0.00,meteobridge,2013-06-09 15:45:00,
2013-06-09 11:50:00,86.7,72.7,30.11,West,270,4.5,4.5,63,0.00,,,0.00,meteobridge,2013-06-09 15:50:00,
2013-06-09 11:55:00,86.2,72.5,30.12,West,270,6.0,6.0,64,0.00,,,0.00,meteobridge,2013-06-09 15:55:00,
2013-06-09 12:00:00,85.6,73.0,30.11,West,270,6.9,6.9,66,0.00,,,0.00,meteobridge,2013-06-09 16:00:00,
2013-06-09 12:06:00,85.1,72.5,30.11,West,270,9.2,9.2,66,0.00,,,0.00,meteobridge,2013-06-09 16:06:00,
2013-06-09 12:11:00,86.2,71.6,30.11,West,270,6.0,7.6,62,0.00,,,0.00,meteobridge,2013-06-09 16:11:00,
2013-06-09 12:16:00,86.0,71.4,30.11,West,270,6.0,8.3,62,0.00,,,0.00,meteobridge,2013-06-09 16:16:00,
2013-06-09 12:21:00,86.5,71.4,30.11,SW,225,7.6,9.8,61,0.00,,,0.00,meteobridge,2013-06-09 16:21:00,
2013-06-09 12:27:00,85.5,72.0,30.11,West,270,6.0,8.3,64,0.00,,,0.00,meteobridge,2013-06-09 16:27:00,
2013-06-09 12:32:00,86.2,72.1,30.11,West,270,1.6,3.8,63,0.00,,,0.00,meteobridge,2013-06-09 16:32:00,
2013-06-09 12:37:00,87.3,72.1,30.10,West,270,2.2,2.2,61,0.00,,,0.00,meteobridge,2013-06-09 16:37:00,
2013-06-09 12:42:00,90.7,70.7,30.10,SE,135,3.8,4.5,52,0.00,,,0.00,meteobridge,2013-06-09 16:42:00,
2013-06-09 12:47:00,91.9,70.0,30.10,WSW,248,2.2,4.5,49,0.00,,,0.00,meteobridge,2013-06-09 16:47:00,
2013-06-09 12:52:00,93.9,70.7,30.10,SE,135,4.5,4.5,47,0.00,,,0.00,meteobridge,2013-06-09 16:52:00,
2013-06-09 12:58:00,92.7,69.4,30.09,South,180,2.2,4.5,47,0.00,,,0.00,meteobridge,2013-06-09 16:58:00,
2013-06-09 13:03:00,91.2,68.2,30.09,South,180,5.4,10.7,47,0.00,,,0.00,meteobridge,2013-06-09 17:03:00,
2013-06-09 13:08:00,89.4,69.4,30.09,South,180,3.8,6.9,52,0.00,,,0.00,meteobridge,2013-06-09 17:08:00,
2013-06-09 13:13:00,91.0,68.0,30.09,South,180,3.8,4.5,47,0.00,,,0.00,meteobridge,2013-06-09 17:13:00,
2013-06-09 13:18:00,93.0,70.3,30.09,SE,135,6.0,6.0,48,0.00,,,0.00,meteobridge,2013-06-09 17:18:00,
2013-06-09 13:23:00,91.9,68.9,30.08,NE,45,6.0,7.6,47,0.00,,,0.00,meteobridge,2013-06-09 17:23:00,
2013-06-09 13:29:00,91.8,69.3,30.08,SE,135,6.9,6.9,48,0.00,,,0.00,meteobridge,2013-06-09 17:29:00,
2013-06-09 13:34:00,91.4,68.9,30.07,SW,225,4.5,6.0,48,0.00,,,0.00,meteobridge,2013-06-09 17:34:00,
2013-06-09 13:39:00,92.3,69.1,30.08,South,180,5.4,6.0,47,0.00,,,0.00,meteobridge,2013-06-09 17:39:00,
2013-06-09 13:44:00,91.4,69.6,30.07,ENE,68,3.8,3.8,49,0.00,,,0.00,meteobridge,2013-06-09 17:44:00,
2013-06-09 13:49:00,91.8,68.7,30.07,SE,135,6.9,6.9,47,0.00,,,0.00,meteobridge,2013-06-09 17:49:00,
2013-06-09 13:54:00,92.3,68.5,30.07,East,90,3.8,5.4,46,0.00,,,0.00,meteobridge,2013-06-09 17:54:00,
2013-06-09 14:00:00,94.8,69.4,30.07,SE,135,3.8,4.5,44,0.00,,,0.00,meteobridge,2013-06-09 18:00:00,
2013-06-09 14:05:00,94.8,69.4,30.07,East,90,3.8,5.4,44,0.00,,,0.00,meteobridge,2013-06-09 18:05:00,
2013-06-09 14:06:00,94.5,69.3,30.07,SE,135,5.4,7.6,44,0.00,,,0.00,meteobridge,2013-06-09 18:06:00,
2013-06-09 14:11:00,92.7,68.2,30.07,SE,135,6.0,6.0,45,0.00,,,0.00,meteobridge,2013-06-09 18:11:00,
2013-06-09 14:16:00,90.3,69.1,30.07,South,180,3.8,8.3,50,0.00,,,0.00,meteobridge,2013-06-09 18:16:00,
2013-06-09 14:21:00,89.6,69.1,30.07,South,180,6.9,8.3,51,0.00,,,0.00,meteobridge,2013-06-09 18:21:00,
2013-06-09 14:27:00,89.6,69.6,30.06,East,90,5.4,5.4,52,0.00,,,0.00,meteobridge,2013-06-09 18:27:00,
2013-06-09 14:32:00,91.2,68.7,30.06,East,90,8.3,8.3,48,0.00,,,0.00,meteobridge,2013-06-09 18:32:00,
2013-06-09 14:37:00,91.6,70.3,30.06,South,180,7.6,7.6,50,0.00,,,0.00,meteobridge,2013-06-09 18:37:00,
2013-06-09 14:42:00,90.1,69.6,30.06,SE,135,5.4,6.0,51,0.00,,,0.00,meteobridge,2013-06-09 18:42:00,
2013-06-09 14:47:00,90.5,70.0,30.06,East,90,6.9,6.9,51,0.00,,,0.00,meteobridge,2013-06-09 18:47:00,
2013-06-09 14:52:00,89.2,70.3,30.06,East,90,6.9,6.9,54,0.00,,,0.00,meteobridge,2013-06-09 18:52:00,
2013-06-09 14:58:00,89.2,70.9,30.06,East,90,5.4,6.0,55,0.00,,,0.00,meteobridge,2013-06-09 18:58:00,
2013-06-09 15:03:00,91.6,70.9,30.06,East,90,2.2,3.8,51,0.00,,,0.00,meteobridge,2013-06-09 19:03:00,
2013-06-09 15:08:00,92.7,70.2,30.06,South,180,8.3,9.8,48,0.00,,,0.00,meteobridge,2013-06-09 19:08:00,
2013-06-09 15:13:00,91.0,70.3,30.05,SE,135,3.8,4.5,51,0.00,,,0.00,meteobridge,2013-06-09 19:13:00,
2013-06-09 15:18:00,91.2,70.5,30.05,South,180,2.2,5.4,51,0.00,,,0.00,meteobridge,2013-06-09 19:18:00,
2013-06-09 15:23:00,90.3,69.8,30.05,East,90,6.0,9.2,51,0.00,,,0.00,meteobridge,2013-06-09 19:23:00,
2013-06-09 15:29:00,89.2,70.3,30.05,ESE,113,2.2,4.5,54,0.00,,,0.00,meteobridge,2013-06-09 19:29:00,
2013-06-09 15:34:00,90.7,70.7,30.04,SE,135,6.9,6.9,52,0.00,,,0.00,meteobridge,2013-06-09 19:34:00,
2013-06-09 15:39:00,91.2,70.5,30.05,SE,135,7.6,7.6,51,0.00,,,0.00,meteobridge,2013-06-09 19:39:00,
2013-06-09 15:44:00,90.9,70.9,30.04,South,180,9.2,9.2,52,0.00,,,0.00,meteobridge,2013-06-09 19:44:00,
2013-06-09 15:49:00,90.1,70.2,30.04,SE,135,5.4,8.3,52,0.00,,,0.00,meteobridge,2013-06-09 19:49:00,
2013-06-09 15:54:00,90.0,70.0,30.03,South,180,9.8,9.8,52,0.00,,,0.00,meteobridge,2013-06-09 19:54:00,
2013-06-09 16:00:00,90.3,70.3,30.03,South,180,7.6,7.6,52,0.00,,,0.00,meteobridge,2013-06-09 20:00:00,
2013-06-09 16:05:00,90.7,70.7,30.03,SE,135,6.0,6.0,52,0.00,,,0.00,meteobridge,2013-06-09 20:05:00,
2013-06-09 16:10:00,89.8,68.0,30.03,SSE,158,6.0,7.6,49,0.00,,,0.00,meteobridge,2013-06-09 20:10:00,
2013-06-09 16:15:00,89.4,69.4,30.03,SE,135,2.2,4.5,52,0.00,,,0.00,meteobridge,2013-06-09 20:15:00,
2013-06-09 16:20:00,89.8,69.3,30.03,SSE,158,6.9,8.3,51,0.00,,,0.00,meteobridge,2013-06-09 20:20:00,
2013-06-09 16:25:00,89.4,69.4,30.03,SW,225,4.5,8.3,52,0.00,,,0.00,meteobridge,2013-06-09 20:25:00,
2013-06-09 16:31:00,89.8,69.8,30.02,SE,135,3.8,10.7,52,0.00,,,0.00,meteobridge,2013-06-09 20:31:00,
2013-06-09 16:36:00,90.3,70.3,30.03,South,180,2.2,3.8,52,0.00,,,0.00,meteobridge,2013-06-09 20:36:00,
2013-06-09 16:41:00,90.9,70.2,30.03,South,180,6.0,13.6,51,0.00,,,0.00,meteobridge,2013-06-09 20:41:00,
2013-06-09 16:46:00,90.7,70.7,30.03,SE,135,2.2,3.8,52,0.00,,,0.00,meteobridge,2013-06-09 20:46:00,
2013-06-09 16:51:00,92.5,70.5,30.03,SE,135,8.3,8.3,49,0.00,,,0.00,meteobridge,2013-06-09 20:51:00,
2013-06-09 16:56:00,90.3,70.3,30.03,East,90,7.6,7.6,52,0.00,,,0.00,meteobridge,2013-06-09 20:56:00,
2013-06-09 17:02:00,89.6,69.6,30.03,SE,135,6.9,9.2,52,0.00,,,0.00,meteobridge,2013-06-09 21:02:00,
2013-06-09 17:07:00,88.5,70.3,30.03,East,90,6.0,9.2,55,0.00,,,0.00,meteobridge,2013-06-09 21:07:00,
2013-06-09 17:12:00,88.7,71.1,30.02,East,90,3.8,4.5,56,0.00,,,0.00,meteobridge,2013-06-09 21:12:00,
2013-06-09 17:17:00,88.9,71.1,30.03,SW,225,5.4,5.4,56,0.00,,,0.00,meteobridge,2013-06-09 21:17:00,
2013-06-09 17:22:00,89.8,71.4,30.03,SE,135,7.6,7.6,55,0.00,,,0.00,meteobridge,2013-06-09 21:22:00,
2013-06-09 17:27:00,88.9,71.6,30.03,SE,135,4.5,4.5,57,0.00,,,0.00,meteobridge,2013-06-09 21:27:00,
2013-06-09 17:33:00,88.0,71.4,30.03,South,180,3.1,3.1,58,0.00,,,0.00,meteobridge,2013-06-09 21:33:00,
2013-06-09 17:38:00,87.6,72.5,30.03,SE,135,3.8,3.8,61,0.00,,,0.00,meteobridge,2013-06-09 21:38:00,
2013-06-09 17:43:00,87.3,72.7,30.03,East,90,5.4,5.4,62,0.00,,,0.00,meteobridge,2013-06-09 21:43:00,
2013-06-09 17:48:00,87.1,72.9,30.03,SE,135,3.8,3.8,63,0.00,,,0.00,meteobridge,2013-06-09 21:48:00,
2013-06-09 17:53:00,86.5,72.9,30.03,SE,135,3.8,4.5,64,0.00,,,0.00,meteobridge,2013-06-09 21:53:00,
2013-06-09 17:58:00,86.2,73.4,30.03,East,90,3.8,4.5,66,0.00,,,0.00,meteobridge,2013-06-09 21:58:00,
2013-06-09 18:04:00,86.2,73.4,30.03,SE,135,3.8,3.8,66,0.00,,,0.00,meteobridge,2013-06-09 22:04:00,
2013-06-09 18:09:00,86.0,72.9,30.03,SE,135,3.1,5.4,65,0.00,,,0.00,meteobridge,2013-06-09 22:09:00,
2013-06-09 18:14:00,86.0,72.3,30.04,SE,135,3.8,6.0,64,0.00,,,0.00,meteobridge,2013-06-09 22:14:00,
2013-06-09 18:19:00,86.0,72.9,30.04,SE,135,3.8,3.8,65,0.00,,,0.00,meteobridge,2013-06-09 22:19:00,
2013-06-09 18:24:00,85.8,73.2,30.04,SE,135,3.1,4.5,66,0.00,,,0.00,meteobridge,2013-06-09 22:24:00,
2013-06-09 18:30:00,85.5,73.2,30.04,South,180,2.2,3.1,67,0.00,,,0.00,meteobridge,2013-06-09 22:30:00,
2013-06-09 18:35:00,85.5,73.8,30.04,SE,135,5.4,5.4,68,0.00,,,0.00,meteobridge,2013-06-09 22:35:00,
2013-06-09 18:40:00,85.1,73.4,30.04,South,180,1.6,3.8,68,0.00,,,0.00,meteobridge,2013-06-09 22:40:00,
2013-06-09 18:45:00,85.1,73.8,30.04,SE,135,0.7,3.1,69,0.00,,,0.00,meteobridge,2013-06-09 22:45:00,
2013-06-09 18:50:00,85.1,73.8,30.04,SE,135,3.8,3.8,69,0.00,,,0.00,meteobridge,2013-06-09 22:50:00,
2013-06-09 18:55:00,84.4,73.9,30.04,East,90,3.1,3.1,71,0.00,,,0.00,meteobridge,2013-06-09 22:55:00,
2013-06-09 19:01:00,83.8,74.7,30.04,SE,135,3.8,3.8,74,0.00,,,0.00,meteobridge,2013-06-09 23:01:00,
2013-06-09 19:06:00,83.7,74.8,30.04,SE,135,3.1,3.8,75,0.00,,,0.00,meteobridge,2013-06-09 23:06:00,
2013-06-09 19:11:00,83.7,75.2,30.04,East,90,3.1,3.1,76,0.00,,,0.00,meteobridge,2013-06-09 23:11:00,
2013-06-09 19:16:00,83.3,75.0,30.04,SE,135,2.2,3.1,76,0.00,,,0.00,meteobridge,2013-06-09 23:16:00,
2013-06-09 19:21:00,82.8,74.8,30.03,East,90,2.2,3.1,77,0.00,,,0.00,meteobridge,2013-06-09 23:21:00,
2013-06-09 19:26:00,82.6,75.0,30.03,SSE,158,2.2,3.1,78,0.00,,,0.00,meteobridge,2013-06-09 23:26:00,
2013-06-09 19:32:00,82.4,75.6,30.04,SE,135,3.8,3.8,80,0.00,,,0.00,meteobridge,2013-06-09 23:32:00,
2013-06-09 19:37:00,81.7,75.6,30.04,SE,135,6.0,6.0,82,0.00,,,0.00,meteobridge,2013-06-09 23:37:00,
2013-06-09 19:42:00,81.0,74.7,30.04,East,90,3.8,3.8,81,0.00,,,0.00,meteobridge,2013-06-09 23:42:00,
2013-06-09 19:47:00,80.1,74.5,30.04,SE,135,3.1,3.8,83,0.00,,,0.00,meteobridge,2013-06-09 23:47:00,
2013-06-09 19:52:00,79.2,74.7,30.05,East,90,3.1,4.5,86,0.00,,,0.00,meteobridge,2013-06-09 23:52:00,
2013-06-09 19:57:00,78.8,74.7,30.05,East,90,9.2,9.2,87,0.00,,,0.00,meteobridge,2013-06-09 23:57:00,
2013-06-09 20:03:00,78.8,73.9,30.06,SE,135,19.7,19.7,85,0.00,,,0.00,meteobridge,2013-06-10 00:03:00,
2013-06-09 20:08:00,77.2,71.2,30.05,South,180,10.7,19.0,82,0.01,,,0.01,meteobridge,2013-06-10 00:08:00,
2013-06-09 20:13:00,73.8,69.6,30.08,South,180,10.7,24.4,87,0.18,,,0.18,meteobridge,2013-06-10 00:13:00,
2013-06-09 20:18:00,72.7,68.5,30.06,South,180,6.0,9.8,87,0.34,,,0.34,meteobridge,2013-06-10 00:18:00,
2013-06-09 20:23:00,71.6,69.1,30.05,East,90,1.6,3.1,92,0.34,,,0.34,meteobridge,2013-06-10 00:23:00,
2013-06-09 20:28:00,71.1,69.6,30.05,SE,135,5.4,5.4,95,0.34,,,0.34,meteobridge,2013-06-10 00:28:00,
2013-06-09 20:34:00,71.1,70.2,30.06,SE,135,6.0,8.3,97,0.34,,,0.34,meteobridge,2013-06-10 00:34:00,
2013-06-09 20:39:00,70.9,70.3,30.07,East,90,6.9,6.9,98,0.34,,,0.34,meteobridge,2013-06-10 00:39:00,
2013-06-09 20:44:00,70.7,70.2,30.07,SE,135,6.0,6.9,98,0.34,,,0.34,meteobridge,2013-06-10 00:44:00,
2013-06-09 20:49:00,70.7,70.2,30.08,East,90,9.2,9.2,98,0.34,,,0.34,meteobridge,2013-06-10 00:49:00,
2013-06-09 20:54:00,70.9,70.3,30.08,SE,135,9.8,9.8,98,0.34,,,0.34,meteobridge,2013-06-10 00:54:00,
2013-06-09 20:59:00,71.1,70.5,30.08,SE,135,6.0,7.6,98,0.34,,,0.34,meteobridge,2013-06-10 00:59:00,
2013-06-09 21:05:00,71.4,70.9,30.08,East,90,3.8,6.0,98,0.33,,,0.34,meteobridge,2013-06-10 01:05:00,
2013-06-09 21:10:00,71.4,70.9,30.08,East,90,3.8,4.5,98,0.30,,,0.34,meteobridge,2013-06-10 01:10:00,
2013-06-09 21:15:00,71.4,70.9,30.08,SE,135,4.5,6.0,98,0.01,,,0.34,meteobridge,2013-06-10 01:15:00,
2013-06-09 21:20:00,71.4,70.9,30.08,East,90,6.0,6.0,98,0.00,,,0.34,meteobridge,2013-06-10 01:20:00,
2013-06-09 21:25:00,71.6,70.7,30.08,SE,135,3.8,4.5,97,0.00,,,0.34,meteobridge,2013-06-10 01:25:00,
2013-06-09 21:30:00,71.6,70.7,30.08,East,90,3.1,5.4,97,0.00,,,0.34,meteobridge,2013-06-10 01:30:00,
2013-06-09 21:36:00,71.6,70.7,30.08,SE,135,1.6,1.6,97,0.00,,,0.34,meteobridge,2013-06-10 01:36:00,
2013-06-09 21:41:00,71.8,70.9,30.09,SSE,158,2.2,2.2,97,0.00,,,0.34,meteobridge,2013-06-10 01:41:00,
2013-06-09 21:46:00,71.8,70.9,30.09,East,90,2.2,3.1,97,0.00,,,0.34,meteobridge,2013-06-10 01:46:00,
2013-06-09 21:51:00,71.8,70.9,30.09,East,90,0.7,2.2,97,0.00,,,0.34,meteobridge,2013-06-10 01:51:00,
2013-06-09 21:56:00,71.8,70.9,30.09,NE,45,0.7,0.7,97,0.00,,,0.34,meteobridge,2013-06-10 01:56:00,
2013-06-09 22:01:00,71.8,70.9,30.09,NE,45,0.7,0.7,97,0.00,,,0.34,meteobridge,2013-06-10 02:01:00,
2013-06-09 22:07:00,72.0,71.1,30.09,East,90,2.2,2.2,97,0.00,,,0.34,meteobridge,2013-06-10 02:07:00,
2013-06-09 22:12:00,72.0,71.1,30.09,East,90,1.6,2.2,97,0.00,,,0.34,meteobridge,2013-06-10 02:12:00,
2013-06-09 22:17:00,71.8,70.9,30.09,East,90,0.7,0.7,97,0.00,,,0.34,meteobridge,2013-06-10 02:17:00,
2013-06-09 22:22:00,71.8,70.9,30.09,East,90,0.7,0.7,97,0.00,,,0.34,meteobridge,2013-06-10 02:22:00,
2013-06-09 22:27:00,71.8,70.9,30.09,East,90,2.2,2.2,97,0.00,,,0.34,meteobridge,2013-06-10 02:27:00,
2013-06-09 22:32:00,71.8,70.9,30.09,SE,135,2.2,2.2,97,0.00,,,0.34,meteobridge,2013-06-10 02:32:00,
2013-06-09 22:38:00,71.8,70.9,30.09,SE,135,1.6,2.2,97,0.00,,,0.34,meteobridge,2013-06-10 02:38:00,
2013-06-09 22:43:00,71.8,70.9,30.10,SE,135,2.2,2.2,97,0.00,,,0.34,meteobridge,2013-06-10 02:43:00,
2013-06-09 22:48:00,71.8,70.9,30.11,East,90,2.2,5.4,97,0.00,,,0.34,meteobridge,2013-06-10 02:48:00,
2013-06-09 22:53:00,71.8,70.9,30.10,East,90,3.8,4.5,97,0.00,,,0.34,meteobridge,2013-06-10 02:53:00,
2013-06-09 22:58:00,72.0,71.1,30.09,ENE,68,3.8,3.8,97,0.00,,,0.34,meteobridge,2013-06-10 02:58:00,
2013-06-09 23:03:00,71.8,70.9,30.10,East,90,3.1,3.8,97,0.00,,,0.34,meteobridge,2013-06-10 03:03:00,
2013-06-09 23:09:00,72.0,71.1,30.10,SE,135,2.2,3.1,97,0.00,,,0.34,meteobridge,2013-06-10 03:09:00,
2013-06-09 23:14:00,72.0,71.1,30.10,NE,45,1.6,1.6,97,0.00,,,0.34,meteobridge,2013-06-10 03:14:00,
2013-06-09 23:19:00,72.0,71.1,30.10,East,90,0.0,0.7,97,0.00,,,0.34,meteobridge,2013-06-10 03:19:00,
2013-06-09 23:24:00,72.0,71.1,30.09,SE,135,1.6,3.1,97,0.00,,,0.34,meteobridge,2013-06-10 03:24:00,
2013-06-09 23:29:00,72.1,71.2,30.09,SE,135,2.2,2.2,97,0.00,,,0.34,meteobridge,2013-06-10 03:29:00,
2013-06-09 23:34:00,72.1,71.2,30.09,SE,135,1.6,3.1,97,0.00,,,0.34,meteobridge,2013-06-10 03:34:00,
2013-06-09 23:40:00,72.1,71.2,30.09,East,90,2.2,2.2,97,0.00,,,0.34,meteobridge,2013-06-10 03:40:00,
2013-06-09 23:45:00,72.1,71.2,30.09,SE,135,0.7,1.6,97,0.00,,,0.34,meteobridge,2013-06-10 03:45:00,
2013-06-09 23:50:00,72.1,71.2,30.09,East,90,3.8,3.8,97,0.00,,,0.34,meteobridge,2013-06-10 03:50:00,
2013-06-09 23:55:00,72.1,71.2,30.09,East,90,3.1,4.5,97,0.00,,,0.34,meteobridge,2013-06-10 03:55:00,